This is the latest recevied weather packets stored in our database for station/object KA3RQR. If no packets are shown the sender has not sent any weather packets the latest 10 day(s).
| Time | Temp. | Humidity | Pressure | Rain* | Wind** | Luminosity | Snow |
|---|---|---|---|---|---|---|---|
| 1778002893 | 26.67° C | 37% | 1011.3 hPa | 0 mm | - | 58 W/m² | - |
| 1778002590 | 26.67° C | 36% | 1011.4 hPa | 0 mm | - | 55 W/m² | - |
| 1778002287 | 26.67° C | 37% | 1011.2 hPa | 0 mm | - | 53 W/m² | - |
| 1778001984 | 26.67° C | 37% | 1011.2 hPa | 0 mm | - | 53 W/m² | - |
| 1778001681 | 26.67° C | 38% | 1011.3 hPa | 0 mm | - | 50 W/m² | - |
| 1778001375 | 26.67° C | 39% | 1011.6 hPa | 0 mm | - | 51 W/m² | - |
| 1778001073 | 26.67° C | 36% | 1011.6 hPa | 0 mm | - | 49 W/m² | - |
| 1778000770 | 26.67° C | 37% | 1011.5 hPa | 0 mm | - | 49 W/m² | - |
| 1778000466 | 26.67° C | 44% | 1011.4 hPa | 0 mm | - | 48 W/m² | - |
| 1778000161 | 26.11° C | 39% | 1011.5 hPa | 0 mm | - | 49 W/m² | - |
| 1777999857 | 26.11° C | 43% | 1011.8 hPa | 0 mm | - | 72 W/m² | - |
| 1777999553 | 26.11° C | 39% | 1011.9 hPa | 0 mm | - | 49 W/m² | - |
| 1777999251 | 25.56° C | 40% | 1011.9 hPa | 0 mm | - | 50 W/m² | - |
| 1777998949 | 26.11° C | 40% | 1011.6 hPa | 0 mm | - | 48 W/m² | - |
| 1777998645 | 25.56° C | 39% | 1012 hPa | 0 mm | - | 48 W/m² | - |
| 1777998338 | 25.56° C | 41% | 1012 hPa | 0 mm | - | 49 W/m² | - |
| 1777998036 | 25° C | 39% | 1012.4 hPa | 0 mm | - | 47 W/m² | - |
| 1777997732 | 25.56° C | 42% | 1012.4 hPa | 0 mm | - | 47 W/m² | - |
| 1777997430 | 25° C | 43% | 1012.5 hPa | 0 mm | - | 51 W/m² | - |
| 1777997127 | 25° C | 45% | 1012.6 hPa | 0 mm | - | 47 W/m² | - |
| 1777996825 | 25° C | 42% | 1012.6 hPa | 0 mm | - | 88 W/m² | - |
| 1777996520 | 25° C | 45% | 1012.7 hPa | 0 mm | - | 46 W/m² | - |
| 1777996217 | 25° C | 44% | 1012.7 hPa | 0 mm | - | 91 W/m² | - |
| 1777995914 | 24.44° C | 45% | 1012.6 hPa | 0 mm | - | 45 W/m² | - |
| 1777995610 | 24.44° C | 45% | 1012.5 hPa | 0 mm | - | 58 W/m² | - |
* Rain latest hour (hover to see other rain measurements)
** Current wind speed in m/s (hover to see current wind gust speed)